Printer-friendly version

IAU Minor Planet Center

Minor Planet Center

MPEC 2004-O36 : 2000 SR43

The following Minor Planet Electronic Circular may be linked-to from your own Web pages, but must not otherwise be redistributed electronically.


Read MPEC 2004-O35 Read MPEC 2004-O37


M.P.E.C. 2004-O36                                Issued 2004 July 27, 01:55 UT

     The Minor Planet Electronic Circulars contain information on unusual
         minor planets and routine data on comets.  They are published
   on behalf of Commission 20 of the International Astronomical Union by the
          Minor Planet Center, Smithsonian Astrophysical Observatory,
                          Cambridge, MA 02138, U.S.A.

                  Supported in part by the Brinson Foundation
             Prepared using the Tamkin Foundation Computer Network

                              MPC@CFA.HARVARD.EDU
          URL http://cfa-www.harvard.edu/iau/mpc.html  ISSN 1523-6714

                                   2000 SR43

                           Revision to MPEC 2000-S61

Additional Observations:
     K00S43R 2C2004 07 21.49685823 51 04.774-18 17 37.98         21.7 R EO036568
     K00S43R 2C2004 07 21.50904523 51 04.847-18 17 33.41                EO036568
     K00S43R 2C2004 07 21.52136623 51 04.927-18 17 28.68         21.7 R EO036568
     K00S43R 2C2004 07 22.50499423 51 12.565-18 11 06.54         21.5 R EO036568
     K00S43R 2C2004 07 22.50889423 51 12.582-18 11 05.00         21.4 R EO036568

Observer details:
568 Mauna Kea.  Observer F. Bernardi.  Measurers F. Bernardi, D. J. Tholen.

First and last observations above in comparison with prediction:
Residuals in seconds of arc, reference and Delta-T
040721 568 72.3+ 79.7+    040722 568 73.6+ 80.8+    MPO 12246   -0.047 day

Orbital elements:
2000 SR43
Epoch 2004 July 14.0 TT = JDT 2453200.5                 MPC
M 321.23390              (2000.0)            P               Q
n   0.24263219     Peri.   78.09734     +0.40880981     -0.90668243
a   2.5458751      Node   346.28935     +0.56833220     +0.34203262
e   0.5489715      Incl.   26.00757     +0.71405395     +0.24686162
P   4.06           H   19.2           G   0.15           U   0
Residuals in seconds of arc
000926 699 (2.3+  0.3-)   000927 557  0.6+  0.1+    001118 540  0.3+  1.4+
000926 699  0.3-  0.2+    000927 046  0.2-  0.2-    001118 540  1.0+  0.4-
000926 699  0.1+  0.6-    000927 046  0.4+  0.1-    001118 540  0.7-  0.7+
000926 699  0.3-  0.0     000927 046  0.4+  0.2+    001118 540  0.9+  0.6-
000926 557  0.2-  0.6-    000927 046  0.9-  0.2+    001120 696  0.0   0.4+
000926 557  0.3-  0.0     000927 118  0.3+  0.3+    001120 696  0.2+  0.1-
000926 046  0.1+  0.6+    000927 118  0.4-  0.1+    001222 696  0.2+  0.7-
000926 046  0.0   0.1-    000927 540  0.3+  0.1-    001222 696  0.8-  0.1+
000926 046  0.6-  0.2-    000927 540  0.1+  0.0     010323 568  0.1+  0.2+
000926 046  0.2-  1.1+    000927 118  1.7-  0.2-    010324 568  0.1+  0.1+
000927 858  0.0   0.4-    000927 540  0.8-  0.5-    040721 568  0.1-  0.1+
000927 858  0.3-  0.6+    000927 540  0.0   0.3+    040721 568  0.1-  0.1+
000927 557  0.2+  0.8-    001020 540  0.2+  0.4-    040721 568  0.0   0.1+
000927 557  0.1+  0.2+    001020 540  1.4+  1.6+    040722 568  0.0   0.0
000927 557  0.3-  0.0     001020 540  0.9+  0.4+    040722 568  0.0   0.0
000927 557  0.1-  0.3+    001020 540  0.5+  0.0
000927 557  0.2-  0.9-    001118 540  1.2-  0.3-

Ephemeris:
2000 SR43                a,e,i = 2.55, 0.55, 26                  q = 1.1483
Date    TT    R. A. (2000) Decl.     Delta      r     Elong.  Phase     V
2004 07 24    23 51.33   -18 01.3    1.146    1.951   128.9    23.9    22.1
2004 08 03    23 49.82   -16 51.0    1.000    1.881   138.0    21.2    21.6
2004 08 13    23 43.47   -15 26.5    0.868    1.810   148.2    17.2    21.1
2004 08 23    23 31.27   -13 36.0    0.755    1.739   159.8    11.6    20.5
2004 09 02    23 12.77   -11 04.2    0.663    1.669   172.5     4.5    19.8
2004 09 12    22 48.76   -07 39.2    0.597    1.599   171.2     5.6    19.5
2004 09 22    22 21.95   -03 21.6    0.558    1.530   156.0    15.5    19.7
2004 10 02    21 56.45   +01 30.2    0.545    1.464   140.8    25.6    19.9
2004 10 12    21 35.79   +06 29.4    0.551    1.400   126.9    34.8    20.1
2004 10 22    21 21.91   +11 19.3    0.571    1.341   115.1    42.2    20.3
2004 11 01    21 14.97   +15 57.4    0.596    1.287   105.5    48.0    20.4
2004 11 11    21 14.31   +20 28.4    0.622    1.240    98.0    52.3    20.6
2004 11 21    21 19.22   +25 00.4    0.643    1.201    92.4    55.3    20.7
2004 12 01    21 29.21   +29 40.3    0.659    1.172    88.5    57.3    20.7
2004 12 11    21 44.35   +34 32.4    0.669    1.154    86.3    58.4    20.7
2004 12 21    22 05.49   +39 39.3    0.673    1.148    85.6    58.7    20.8
2004 12 31    22 34.37   +44 58.1    0.674    1.155    86.2    58.2    20.8
2005 01 10    23 14.09   +50 15.2    0.674    1.173    88.0    56.9    20.7
2005 01 20    00 08.88   +54 59.7    0.678    1.202    90.8    54.9    20.8
2005 01 30    01 21.32   +58 13.6    0.691    1.242    93.9    52.3    20.8
2005 02 09    02 45.85   +58 49.8    0.720    1.289    96.9    49.4    20.9
2005 02 19    04 07.24   +56 29.4    0.767    1.343    99.1    46.6    21.0
2005 03 01    05 13.86   +52 03.5    0.836    1.403   100.0    44.1    21.2
2005 03 11    06 05.05   +46 44.1    0.926    1.467    99.6    41.9    21.5
2005 03 21    06 44.81   +41 21.6    1.035    1.533    98.0    40.0    21.8

Gareth V. Williams           (C) Copyright 2004 MPC           M.P.E.C. 2004-O36

Read MPEC 2004-O35 Read MPEC 2004-O37


Our Web policy. Index to the CBAT/MPC/ICQ pages.


Valid HTML 4.01!